www.pogodaiklimat.ru

Погода и климат >> Архив погоды >> Россия >> Красноярский край >> Назимово


ПОГОДА в Назимово

  • Прогноз погоды в Назимово
  • Монитор погоды в Назимово

АРХИВ ПОГОДЫ в Назимово

Время (UTC), дата Ветер
(напр.,м/с)
 
Видим.   Явления Облачность Т
(С)
Тd
(С)
f
(%)
Тe
(С)
Тes
(С)
Комфортность P
(гПа)
Po
(гПа)
Тmin
(С)
Tmax
(С)
R
(мм)
R24
(мм)
S
(см)
00 20.03 штиль 0 н/о 3/0
[Ci fib]
-13.4 -14.0 95 -13 -13 1030.9 1021.9 -13.4 70
03 20.03 С 1 20 км 1/0
[Ci fib]
-9.5 -12.5 79 -12 -8 1031.7 1022.8 -14.6
06 20.03 штиль 0 50 км 3/1 1000 м
[Cu hum Ci fib]
-1.6 -8.9 57 -2 +5 1031.5 1022.9
09 20.03 С 1 50 км 10/0
[Cc]
+1.6 -6.6 54 +1 +3 1030.5 1022.0
12 20.03 СЗ 1 50 км 9/0
[Cc]
-1.5 -7.5 64 -3 -3 1030.7 1022.1 +1.8
15 20.03 З 2 н/о 1/0
[Ci fib]
-8.9 -12.3 76 -13 -13 1030.9 1022.1
18 20.03 ЮВ 1 н/о ясно -10.9 -12.9 85 -13 -13 1031.0 1022.1
21 20.03 ЮВ 2 н/о 3/0
[Ci fib]
-12.7 -14.0 90 -17 -17 1030.9 1021.9
00 21.03 ЮВ 2 н/о 3/3 1000 м
[Sc]
-12.7 -14.0 90 -17 -17 1030.5 1021.5 -12.8 70
03 21.03 ЮВ 4 50 км 10/0 2000 м
[Ac As]
-6.8 -10.1 77 -13 -13 1029.7 1020.9 -13.2
06 21.03 ЮВ 5 50 км 9/0 2000 м
[Ac As]
-2.2 -7.3 68 -8 -7 1027.5 1018.9
09 21.03 ЮЗ 4 50 км 9/0
[Cc]
+4.6 -7.6 41 +1 +3 1025.1 1016.7
12 21.03 ЮЗ 3
{11}
50 км 9/0
[Ci fib]
+4.4 -10.5 33 +2 +2 1023.7 1015.3 +5.4
15 21.03 ЮВ 2 н/о 8/0
[Ci fib]
-1.2 -9.8 52 -4 -4 1023.4 1015.0
18 21.03 ЮВ 2 н/о 9/0
[Ci fib]
-6.1 -9.6 76 -10 -10 1023.0 1014.4
21 21.03 ЮВ 2 н/о 9/0
[Ci fib]
-5.8 -8.8 79 -10 -10 1021.4 1012.8
00 22.03 ЮВ 2 н/о 10/0
[Cc]
-6.1 -10.1 73 -10 -10 1019.8 1011.2 -8.2 70
03 22.03 Ю 3 50 км 10/0 2000 м
[Ac As]
0.0 -5.7 65 -4 -3 1017.5 1009.1
06 22.03 ЮЗ 4 50 км 10/0 2000 м
[Ac trans Cs]
+2.4 -7.1 49 -2 0 1015.4 1007.1
09 22.03 ЮЗ 4
{11}
50 км 10/0 2000 м
[Ac As]
+3.0 -5.8 52 -1 -0 1014.9 1006.6
12 22.03 З 3
{11}
50 км в посл. час ливневой снег 10/10 600 м
[Cb cap]
+0.8 -4.9 66 -3 -3 1016.3 1007.9 +3.2 0.0
15 22.03 З 3 н/о {ливн. осадки} 10/4 600 м
[Cb cap Ac As]
-0.7 -4.2 77 -5 -5 1017.8 1009.4
18 22.03 штиль 0 н/о {ливн. осадки} 10/0 2000 м
[Ac und]
-3.4 -4.8 90 -5 -5 1018.8 1010.3
21 22.03 ЮВ 1 н/о 10/0 2000 м
[Ac und]
-3.6 -5.1 89 -6 -6 1019.6 1011.1
00 23.03 штиль 0 50 км 10/0 2000 м
[Ac As]
-3.7 -5.2 89 -5 -5 1019.9 1011.4 -4.9 0.0 70
03 23.03 СВ 1 50 км 10/0 2000 м
[Ac und]
0.0 -4.1 74 -2 -1 1021.0 1012.6
06 23.03 штиль 0 50 км 10/10 1000 м
[Sc]
+1.2 -3.7 70 0 0 1020.8 1012.4
09 23.03 штиль 0 50 км 10/10 1000 м
[Sc]
+2.4 -3.5 65 +2 +2 1020.1 1011.8
12 23.03 Ю 2 50 км 10/10 1000 м
[Sc]
+0.8 -3.8 71 -2 -2 1019.7 1011.3 +2.5
15 23.03 ЮВ 1 н/о ясно -5.2 -6.2 93 -8 -8 1019.8 1011.2
18 23.03 штиль 0 н/о 3/0 2000 м
[Ac lent]
-8.1 -8.7 95 -9 -9 1019.5 1010.8
21 23.03 штиль 0 н/о 10/0
[Cs]
-11.4 -12.0 95 -12 -12 1018.9 1010.1
00 24.03 ЮВ 1 н/о 10/0 2000 м
[Ac As]
-12.1 -12.7 95 -14 -14 1018.7 1009.9 -12.2 69
03 24.03 ЮВ 1 20 км 9/0
[Cc]
-7.9 -8.9 93 -10 -7 1018.3 1009.6 -12.4
06 24.03 В 4 50 км 3/3 1000 м
[Cu hum]
-1.4 -6.5 68 -7 -4 1016.4 1008.0
09 24.03 В 3 50 км 10/1 1000 м
[Cu hum Ac trans]
+0.8 -4.9 66 -3 -2 1015.9 1007.5
12 24.03 Ю 1 50 км 10/4 1000 м
[Cu hum Ac trans]
-0.8 -6.1 67 -3 -3 1015.9 1007.5 +2.2
15 24.03 штиль 0 н/о 4/1 1000 м
[Sc diur, vesp Ci]
-3.2 -6.3 79 -4 -4 1016.2 1007.7
18 24.03 СЗ 2 н/о слаб. ливневой снег 10/10 600 м
[Cb cap]
-2.2 -2.8 96 -6 -6 1016.5 1008.0
21 24.03 СЗ 3 н/о слаб. ливневой снег 10/10 600 м
[Cb cap]
-3.5 -4.3 94 -9 -9 1017.6 1009.1
00 25.03 СЗ 2 50 км {ливн. осадки} 10/0 600 м
[As op]
-3.9 -4.4 96 -8 -8 1019.2 1010.7 -3.9 0.4 69
03 25.03 С 3 10 км слаб. ливневой снег 10/10 600 м
[Cb cap]
-2.0 -2.9 94 -7 -7 1021.0 1012.5
06 25.03 СЗ 4 50 км {ливн. осадки} 9/9 600 м
[Cb cap]
-0.3 -3.0 82 -6 -5 1022.9 1014.5
09 25.03 СЗ 2 50 км в посл. час ливневой снег 9/9 600 м
[Cb cap]
+1.6 -2.5 74 -2 -1 1024.8 1016.3
12 25.03 штиль 0 10 км слаб. ливневой снег 8/8 600 м
[Cb cap]
+1.5 -2.0 78 +1 +1 1027.0 1018.5 +2.7 0.3
15 25.03 З 2 н/о 9/9
[Cb cap]
+0.3 -3.4 76 -3 -3 1029.4 1020.9
18 25.03 штиль 0 н/о ясно -6.0 -7.9 86 -7 -7 1030.7 1022.0
21 25.03 штиль 0 н/о ясно -10.9 -12.2 90 -11 -11 1032.6 1023.7
00 26.03 ЮВ 1 1000 м дымка 8/0
[Ci fib]
-13.7 -13.7 100 -16 -16 1034.1 1025.1 -13.3 69
03 26.03 ЮВ 1 4000 м дымка ясно -8.0 -9.4 90 -10 -6 1035.2 1026.3 -14.4
06 26.03 ЮВ 2 50 км 3/3 1000 м
[Cu hum]
-0.2 -5.6 67 -3 +1 1034.6 1026.0
09 26.03 ЮВ 2 50 км 8/3 1000 м
[Cu hum Ci fib]
+3.2 -7.6 45 +1 +3 1032.9 1024.5
12 26.03 Ю 2 50 км 3/3 1000 м
[Sc diur, vesp Ci fib]
+4.3 -9.1 37 +2 +2 1032.2 1023.8 +5.0
15 26.03 ЮВ 1 н/о ясно -5.7 -10.0 72 -8 -8 1032.1 1023.4
18 26.03 ЮВ 1 н/о ясно -10.7 -11.3 95 -13 -13 1032.0 1023.1

 

Местоположение метеостанции Назимово (Красноярский край, Россия): широта 59.50 долгота 91.02 высота над уровнем моря 67 м.

В архиве по умолчанию представлена погода в Назимово за последнюю неделю. Архивные данные за месяц целиком и за предыдущие месяцы, начиная с января 2011 года, Вы можете получить, выбрав интересующий диапазон дат из раскрывающегося списка и нажав кнопку "Ввод!".


*Определитесь, кто Вы:
робот инопланетянин человек

Внимание! Время в таблицах - всемирное. Для получения местного времени необходимо прибавить поправку, которая равна 7 ч.

Смотрите также архив погоды в соседних городах и на ближайших метеорологических станциях:

Погода в Ярцево (Красноярский край, Россия) (97 км)
Погода в Александровском Шлюзе (Красноярский край, Россия) (98 км)
Погода в Енисейске (Красноярский край, Россия) (134 км)
Погода в Северо-Енисейском (Красноярский край, Россия) (149 км)
Погода в Лосиноборске (Красноярский край, Россия) (152 км)
Погода в Сыме (Красноярский край, Россия) (175 км)
Погода в Ворогово (Красноярский край, Россия) (187 км)
Погода в Стрелке (Красноярский край, Россия) (195 км)
Погода в Усть-Озерном (Томская область, Россия) (199 км)
Погода в Вельмо (Красноярский край, Россия) (215 км)

Пояснения к столбцам:

Ветер - указаны скорость ветра в м/с - средняя за 10 мин, порывы в срок и между сроками (в фигурных скобках) и направление, откуда дует ветер: С - северный, СВ - северо-восточный, В - восточный, ЮВ - юго-восточный, Ю - южный, ЮЗ - юго-западный, З - западный, СЗ - северо-западный.
Видимость - горизонтальная дальность видимости в метрах или километрах. При видимости от 1 до 10 км при отсутствии осадков обычно наблюдается дымка, при ухудшении видимости до 1 км и менее - туман. В сухую погоду видимость может ухудшаться дымом, пылью или мглою.
Явления - указаны атмосферные явления, наблюдавшиеся в срок или в последний час перед сроком; фигурными скобками обозначены явления, наблюдавшиеся между сроками (за 1-3 часа до срока); квадратными скобками обозначены град или гололедные отложения с указанием их диаметра в мм.
Облачность - указаны через наклонную черту общая и нижняя облачность в баллах и высота нижней границы облаков в метрах; квадратными скобками обозначены формы облаков: Ci - перистые, Cs - перисто-слоистые, Cc - перисто-кучевые, Ac - высококучевые, As - высокослоистые, Sc - слоисто-кучевые, Ns - слоисто-дождевые, Cu - кучевые, Cb - кучево-дождевые. Подробнее классификацию облаков см. в Атласе облаков (PDF).
T - Температура воздуха - температура, измеренная на высоте 2 м над землей.
Td - Температура точки росы - температура, при понижении до которой содержащийся в воздухе водяной пар достигнет насыщения.
f - Относительная влажность воздуха - влажноcть воздуха, измеренная на высоте 2 м над землей.
Te - Эффективная температура - температура, которую ощущает одетый по сезону человек в тени. Характеристика душности погоды. При расчете учитывается влияние влажности воздуха и скорости ветра на теплоощущения человека.
Tes - Эффективная температура на солнце - температура, которую ощущает человек, с поправкой на солнечный нагрев. Характеристика знойности погоды. Зависит от высоты солнца над горизонтом, облачности и скорости ветра. Ночью, в пасмурную погоду, а также при ветре 12 м/с и более поправка равна нулю.
P - Атмосферное давление - приведенное к уровню моря атмосферное давление.
Po - Атмосферное давление - измеренное на уровне метеостанции атмосферное давление.
Tmin - Минимальная температура - минимум температуры воздуха на высоте 2 м над землей.
Tmax - Максимальная температура - максимум температуры воздуха на высоте 2 м над землей.
R - Количество осадков - Количество выпавших осадков за период времени, мм. При наведении курсора мыши на число - период времени, за который выпало указанное количество осадков.
R24 - Количество осадков - Количество выпавших осадков за 24 часа, мм.
S - Снежный покров - Высота снежного покрова, см. При наведении курсора мыши на число - состояние снежного покрова и степень покрытия местности в баллах.